Flag for Japan Weather past 2 weeks in Hamamatsu, Japan

Now
72 °F

Mild.


Feels Like: 70 °F
Forecast: 67 / 76 °F
Wind: 5 mph from East

Location: Omaezaki

Current Time: Oct 2, 2014 at 12:15:11 AM

Latest Report: Oct 1, 2014 at 11:00 PM


Visibility: 9 mi

Pressure: 30.03 "Hg

Humidity: 86%

Dew point: 67 °F

Location of HamamatsuLocation

Historic Weather in Hamamatsu — Graph

°F

Hamamatsu temperature yesterday

Maximum temperature yesterday: 78 °F (at 12:00 PM)
Minimum temperature yesterday: 70 °F (at 5:00 AM)
Average temperature yesterday: 73 °F

Past Weeks' High & Low Weather Summary

 TemperatureHumidityPressure
High80 °F (Sep 17, 2:00 PM)100% (Sep 24, 7:00 PM)30.18 "Hg (Sep 24, 7:00 PM)
Low65 °F (Sep 22, 1:00 AM)46% (Sep 21, 4:00 PM)29.59 "Hg (Sep 25, 3:00 PM)
Average73 °F73%29.93 "Hg
* Reported Sep 16 11:00 PM — Oct 1 11:00 PM, Hamamatsu, Weather by CustomWeather, © 2014

Note: Actual official high and low records may vary slightly from our data, if they occured in-between our weather recording intervals... More about our weather records

Advertising

Hamamatsu weather history for previous 24 hours

 ConditionsComfort  
Time TempWeatherWind HumidityBarometerVisibility
11:00 PM
Oct 1
72 °FMild.5 mph86%30.03 "Hg9 mi
10:00 PM72 °FMild.6 mph87%30.03 "Hg9 mi
9:00 PM72 °FMild.7 mph88%30.03 "Hg9 mi
8:00 PM72 °FMild.6 mph86%30.03 "Hg11 mi
7:00 PM72 °FMild.7 mph85%30.02 "Hg11 mi
6:00 PM73 °FMild.8 mph86%30.00 "Hg11 mi
5:00 PM75 °FMild.7 mph76%29.99 "Hg12 mi
4:00 PM75 °FMild.5 mph73%29.99 "Hg10 mi
3:00 PM76 °FMild.10 mph72%29.98 "Hg10 mi
2:00 PM77 °FWarm.12 mph64%29.97 "Hg11 mi
1:00 PM77 °FWarm.8 mph68%29.98 "Hg10 mi
12:00 PM78 °FWarm.7 mph70%29.99 "Hg11 mi
11:00 AM76 °FMild.5 mph73%30.00 "Hg12 mi
10:00 AM76 °FMild.5 mph70%30.01 "Hg9 mi
9:00 AM75 °FMild.5 mph77%30.01 "Hg8 mi
8:00 AM72 °FMild.3 mph86%30.00 "Hg7 mi
7:00 AM71 °FLight rain. Cloudy.2 mph91%30.00 "Hg5 mi
6:00 AM70 °FMild.6 mph90%29.98 "Hg7 mi
5:00 AM70 °FLight rain. Cloudy.3 mph95%29.98 "Hg2 mi
4:00 AM72 °FLight rain. Overcast.2 mph91%29.97 "Hg3 mi
3:00 AM72 °FMild.5 mph81%29.95 "Hg6 mi
2:00 AM72 °FMild.3 mph81%29.95 "Hg6 mi
1:00 AM72 °FMild.3 mph80%29.95 "Hg7 mi
12:00 AM73 °FFog.5 mph87%29.94 "Hg6 mi
Weather by CustomWeather, © 2014

See weather overviewHow to use our weather pages